Location: Clatteringshaws Loch
(55.0508°N, 4.2860°W)
Time: 17:02:46
(UTC+01:00)

Daily predictions for brighter satellites

Satellite Brightness Start Highest point End
(mag) Time Altitude Azimuth Time Altitude Azimuth Time Altitude Azimuth
Cosmos 1140 Rocket 4.4 22:28:41 10° SSE 22:33:11 30° ESE 22:37:41 10° NE
Meteor 1-21 4.4 22:28:23 10° S 22:34:07 62° E 22:39:52 10° NNE
USA 245 4.3 22:31:07 10° S 22:36:27 61° WSW 22:40:47 10° NNW
H-2A R/B 2.2 22:32:36 10° SSE 22:37:35 67° ENE 22:42:44 10° NNW
Lacrosse 5 2.1 22:33:40 10° WNW 22:38:46 75° N 22:43:51 10° E
Cosmos 1953 Rocket 3.7 22:35:26 10° SSW 22:39:53 85° WNW 22:44:24 10° N
Cosmos 1346 Rocket 2.9 22:36:45 10° SSW 22:40:40 84° WNW 22:44:41 10° NNE
COSMOS 2455 3.1 22:35:11 10° SW 22:41:14 79° NW 22:47:18 10° NE
Cosmos 676 Rocket 4.1 22:37:58 10° S 22:43:13 60° ESE 22:48:28 10° NNE
Cosmos 1842 3.4 22:40:57 10° S 22:44:47 56° E 22:48:38 10° NNE
SPOT 1/Viking Rocket 4.3 22:41:58 10° S 22:46:59 51° W 22:52:02 10° NNW
Cosmos 1733 4.4 22:44:17 10° N 22:47:46 30° ENE 22:51:12 10° SE
ATLAS CENTAUR R/B 4.1 22:45:34 10° WNW 22:50:01 30° NNW 22:54:21 10° NE
USA 238 DEB 4.3 22:44:30 10° S 22:50:53 38° ESE 22:57:15 10° NE
USA 238 4.3 22:44:37 10° S 22:50:59 37° ESE 22:57:20 10° ENE
CZ-4C R/B 3.9 22:49:02 10° SE 22:51:41 14° ESE 22:54:27 10° ENE
Cosmos 1980 Rocket 4.1 22:55:10 10° NNW 22:59:43 24° NNE 23:04:16 10° E
Cosmos 1900 4.4 22:55:56 10° SSW 23:01:03 72° SE 23:06:11 10° NE
SL-08 RB Rocket 4.4 22:58:11 10° S 23:02:36 50° W 23:07:00 10° NNW
Cosmos 2278 4.1 23:02:18 10° NNW 23:07:55 58° NE 23:13:30 10° SE
Cosmos 407 Rocket 3.8 23:04:30 10° SSW 23:09:45 75° WNW 23:14:59 10° NNE
DMSP B5D2-2 4.4 23:04:44 10° NNE 23:09:54 50° E 23:15:01 10° S
NOSS 3-3 (A) 4.5 23:03:01 10° NW 23:10:13 82° SW 23:18:00 10° SE
NOSS 3-3 (C) 4.5 23:03:07 10° NW 23:10:19 82° SW 23:18:07 10° SE
Cosmos 1758 Rocket 4.4 23:09:12 10° SSW 23:13:28 52° WNW 23:17:45 10° N
Cosmos 1758 4.0 23:09:33 10° NNW 23:13:35 52° W 23:17:35 10° S
Genesis I 3.8 23:10:02 10° NW 23:14:01 56° NE 23:17:55 10° ESE
Cosmos 1544 3.1 23:10:59 10° N 23:14:47 86° ENE 23:18:19 11° SSE
CARTOSAT-1 3.9 23:10:52 10° S 23:15:10 64° WSW 23:19:30 10° NNW
SAR-Lupe-2 4.3 23:15:34 10° S 23:19:03 49° W 23:22:34 10° NNW
Cosmos 1697 Rocket 4.0 23:13:53 10° NNW 23:19:07 36° NE 23:24:19 10° ESE
Cosmos 1340 3.6 23:16:12 12° SSE 23:19:17 33° E 23:22:44 10° NNE
Okean 3 Rocket 4.4 23:15:59 11° SSE 23:19:45 37° E 23:23:52 10° NNE
Cosmos 1943 Rocket 3.6 23:16:44 10° NW 23:21:28 30° WSW 23:26:13 10° SSW
COSMOS 2406 3.4 23:17:52 10° SSW 23:23:27 58° ESE 23:29:06 10° NE
Cosmos 1818 3.6 23:21:59 10° NW 23:27:30 79° SW 23:32:37 12° SE
Cosmos 1656 Rocket 4.3 23:23:27 10° NW 23:28:54 48° WSW 23:34:07 11° S
Cosmos 1470 2.7 23:25:42 10° NNW 23:29:37 86° W 23:33:03 13° S
Cosmos 1805 4.4 23:26:31 10° NNW 23:30:14 39° W 23:33:56 10° SSW
Cosmos 1954 Rocket 4.2 23:25:49 10° SSW 23:31:08 81° WNW 23:36:28 10° NNE
Cosmos 2082 Rocket 4.2 23:30:36 10° ESE 23:32:28 12° E 23:34:19 10° ENE
IGS 5A 4.2 23:30:31 10° S 23:34:33 48° W 23:38:37 10° NNW
SL-27 R/B 2.7 23:31:24 10° SW 23:34:44 68° WNW 23:38:07 10° NNE
Cosmos 1656 4.5 23:29:46 10° NNW 23:35:20 49° NE 23:40:51 10° ESE
Cosmos 1842 Rocket 4.3 23:32:59 10° NNW 23:37:13 49° W 23:41:29 10° S
Cosmos 1943 4.4 23:34:42 10° WSW 23:40:11 47° NW 23:45:44 10° NNE
Lacrosse 4 Rocket 2.5 23:36:59 10° WSW 23:40:57 48° NW 23:45:02 10° NNE
ALOS 2 3.6 23:40:01 11° SE 23:43:54 37° ENE 23:47:57 10° N
Cosmos 405 Rocket 4.4 23:41:53 12° SE 23:44:11 19° E 23:46:55 10° NE
Cosmos 1092 Rocket 4.0 23:38:08 10° S 23:44:26 80° E 23:50:43 10° NNE
COSMOS 2487 2.7 23:42:42 12° S 23:45:52 53° ESE 23:49:25 10° NNE
Geosat 4.0 23:44:05 10° NE 23:49:08 70° ESE 23:54:09 10° SSW
H-2A R/B 4.1 23:46:42 10° NE 23:49:28 19° E 23:51:41 12° SE
Nadezhda 4 Rocket 4.2 23:45:53 10° SSW 23:52:13 75° WNW 23:58:34 10° N
Cosmos 841 Rocket 3.9 23:47:33 10° NNW 23:52:46 59° ENE 23:57:37 12° SE
Landsat 5 4.5 23:51:53 12° SE 23:55:18 37° ENE 23:59:09 10° N
